Regional Weather Roundup
Issued by NWS

Home | Current Version | Previous Version | Text Only | Print | Product List | Glossary On
Versions: 1 2 3 4 5 6 7 8 9 10 11 12 13 14 15 16 17 18 19 20 21 22 23 24 25 26 27 28 29 30 31 32 33 34 35 36 37 38 39 40 41 42 43 44 45 46 47 48 49 50
000
ASUS44 KFWD 200715
RWRTX
NORTH TEXAS HOURLY WEATHER ROUNDUP
NATIONAL WEATHER SERVICE FORT WORTH TX
100 AM CST SAT JAN 20 2018

NOTE: "FAIR" INDICATES FEW OR NO CLOUDS BELOW 12,000 FEET WITH NO
SIGNIFICANT WEATHER AND/OR OBSTRUCTIONS TO VISIBILITY.

TXZ118-119-200800-
DALLAS/FORT WORTH METROPLEX

CITY           SKY/WX    TMP DP  RH WIND       PRES   REMARKS
DFW AIRPORT    DRIZZLE   54  51  90 S12       30.01S FOG
DALLAS LOVE    DRIZZLE   52  49  89 S13       30.02F
FTW MEACHAM    CLOUDY    53  51  93 S14       30.01F FOG
DAL-EXECUTIVE  CLOUDY    51  50  96 S12       30.01F FOG
FTW-ALLIANCE   CLOUDY    53  50  89 S12       30.01S
FTW-NAS-JRB    CLOUDY    51  49  92 S14       30.02F FOG
FTW-SPINKS     CLOUDY    53  51  92 S12       30.03F FOG
ARLINGTON      CLOUDY    51  51 100 S12       30.02F FOG
GRAND PRAIRIE  CLOUDY    51  51 100 SE7       30.04F VSB 1
ADDISON        CLOUDY    52  49  89 S8        30.03F
MESQUITE       CLOUDY    51  50  95 SE8       30.04F
LANCASTER      CLOUDY    50  49  95 S6        30.04F FOG
$$

TXZ091>094-102>105-117-120-121-131>134-200800-
NORTH CENTRAL TEXAS

CITY           SKY/WX    TMP DP  RH WIND       PRES   REMARKS
SHRMAN/DENISON CLOUDY    51  45  79 S12       30.02F
GAINESVILLE    CLOUDY    51  46  84 S12       30.02S
BOWIE          CLOUDY    50  49  95 S14       29.96F FOG
BRIDGEPORT     CLOUDY    52  49  87 S12       30.02S
DECATUR        CLOUDY    51  48  92 S13G22    29.99S FOG
DENTON         CLOUDY    52  50  93 S10       30.02S
MCKINNEY       CLOUDY    51  49  92 S12       30.02F
BONHAM         CLOUDY    50  44  79 S10       30.04S
GREENVILLE     CLOUDY    54  48  82 S8        30.04F
ROCKWALL       CLOUDY    51  49  96 S9        30.04S
TERRELL        CLOUDY    53  49  86 S15       30.04F
WAXAHACHIE     CLOUDY    50  50 100 S7        30.04F FOG
CLEBURNE       FOG       50  50 100 S10       30.03F VSB 1/2
GRANBURY       CLOUDY    54  50  88 SE13G20   30.02F
$$

TXZ083>090-098>101-113>116-127>130-139>142-154-155-200800-
WESTERN NORTH TEXAS

CITY           SKY/WX    TMP DP  RH WIND       PRES   REMARKS
WICHITA FALLS  FAIR      50  46  86 S18       29.90F
WF-KICKAPOO    FAIR      49  47  92 S13       29.94F
VERNON         FAIR      50  43  76 S15       29.88F
ABILENE        FAIR      46  45  96 S18       29.94F WCI  39
ABILENE-DYESS  FAIR      47  45  95 S23G31    29.92F WCI  39
GRAHAM           N/A     51  51 100 S9        29.94S
BRECKENRIDGE   FAIR      53  47  82 S12G17    29.95F
CISCO          CLOUDY    52  48  87 S21G31    29.96F
EASTLAND       CLOUDY    52  48  85 S20G25    29.97S
RANGER         CLOUDY    52  48  87 S18       29.97F
MINERAL WELLS  CLOUDY    52  48  86 S12       29.97F
STEPHENVILLE   CLOUDY    51  49  92 S14G24    30.02F
COMANCHE       CLOUDY    51  51 100 S15G23    30.00S
BROWNWOOD      CLOUDY    54  48  82 S13G24    30.00F
COLEMAN        CLOUDY    50  46  85 S10       29.99F
$$

TXZ143>147-156>162-174-175-200800-
CENTRAL TEXAS

CITY           SKY/WX    TMP DP  RH WIND       PRES   REMARKS
WACO           CLOUDY    54  53  97 S16       30.04S
WACO-MCGREGOR  CLOUDY    54  54 100 S15G23    30.03F
CORSICANA      LGT RAIN  55  54  96 S17       30.07S FOG
MEXIA          CLOUDY    54  53  96 SE14G22   30.06S FOG
HEARNE         CLOUDY    54  54 100 SE8       30.10F FOG
CAMERON        CLOUDY    56  55  97 S10       30.07F FOG
TEMPLE         CLOUDY    54  54 100 S20       30.04F
KILLEEN        CLOUDY    51  51 100 S18       30.02F
KILLEEN-SKYLRK CLOUDY    52  52 100 S12       30.05S
FORT HOOD      CLOUDY    52  52 100 S17       30.00F
GATESVILLE     CLOUDY    52  52 100 S7        30.05S FOG
HAMILTON       CLOUDY    52  52 100 S16       30.02F FOG
LAMPASAS       CLOUDY    50  49  97 S8        30.03F
$$

TXZ095>097-106>112-122>126-135>138-148>153-164>167-200800-
EAST TEXAS

CITY           SKY/WX    TMP DP  RH WIND       PRES   REMARKS
PARIS          CLOUDY    50  43  77 S12       30.06F
SULPHUR SPRNGS CLOUDY    52  45  76 S13       30.07F
MOUNT PLEASANT CLOUDY    51  46  80 SE10      30.10F
GILMER         CLOUDY    52  47  82 SE7       30.09F
MINEOLA        CLOUDY    52  48  87 S9        30.07F
TYLER          CLOUDY    54  50  86 S9        30.08F
LONGVIEW       CLOUDY    49  43  80 SE8       30.11F
MARSHALL       CLOUDY    50  37  62 S5        30.15S
ATHENS         CLOUDY    52  50  93 S15G22    30.06F
PALESTINE      CLOUDY    55  52  90 SE9G16    30.11S
JACKSONVILLE   CLOUDY    53  50  92 S9G16     30.12S
CENTER         CLOUDY    49  38  66 SE6       30.15F
NACOGDOCHES    CLOUDY    51  43  74 SE6       30.14F
LUFKIN         CLOUDY    51  45  79 SE8       30.13F
$$

SUPPLEMENTAL OBSERVATIONS (NWS FORT WORTH AREA)

CITY           SKY/WX    TMP DP  RH WIND       PRES   REMARKS
DENISON DAM      N/A     52  45  76 S9          N/A
CADDO GRASSLND   N/A     48  39  71 S8          N/A
PAT MAYSE LAKE   N/A     46  37  71 E9          N/A
GREENVILLE       N/A     52  46  82 S8G20       N/A
CEDAR HILL       N/A     52  48  87 S12         N/A
LBJ GRASSLAND    N/A     52  46  82 S12         N/A
POSSUM KINGDOM   N/A     52  46  82 S12G22      N/A
GRANBURY         N/A     54  50  87 S15         N/A
COMANCHE         N/A     52  50  93 S14G26      N/A
MCGREGOR         N/A     54  52  94 S16G24      N/A
TEMPLE           N/A     54  52  94 S13         N/A
LAKE LIMESTONE   N/A     55  54  94 S9G17       N/A
ATHENS           N/A     55  50  82 S13G22      N/A
$$

SUPPLEMENTAL OBSERVATIONS (NWS NORMAN AREA)

CITY           SKY/WX    TMP DP  RH WIND       PRES   REMARKS
MILLERS CREEK    N/A     46  41  81 S13         N/A
$$

SUPPLEMENTAL OBSERVATIONS (NWS SAN ANGELO AREA)

CITY           SKY/WX    TMP DP  RH WIND       PRES   REMARKS
HAMBY            N/A     46  43  87 S15G22      N/A
IVIE RESERVOIR   N/A     45  41  87 SE5         N/A
COLORADO BEND    N/A     52  50  93 S9G17       N/A
$$

SUPPLEMENTAL OBSERVATIONS (NWS SHREVEPORT AREA)

CITY           SKY/WX    TMP DP  RH WIND       PRES   REMARKS
CLARKSVILLE      N/A     50  39  66 S10         N/A
TEXARKANA        N/A     48  30  49 SE3         N/A
LINDEN           N/A     52  41  66 SE6         N/A
CADDO LAKE       N/A     52  39  62 S3          N/A
GILMER           N/A     54  48  82 S10         N/A
HENDERSON        N/A     52  45  76 S7          N/A
LUFKIN           N/A     54  48  82 MISG        N/A
N SABINE NF      N/A     48  39  71 MISG        N/A
S SABINE NF      N/A     46  36  66 S3          N/A
$$

SUPPLEMENTAL OBSERVATIONS ARE A COLLECTION OF AUTOMATED INSTRUMENTS
THAT ARE MAINTAINED BY A VARIETY OF FEDERAL AND STATE AGENCIES.
CERTAIN ELEMENTS...SUCH AS HUMIDITY VALUES AND SUSTAINED WIND
SPEEDS...MAY BE APPROXIMATED.





USA.gov is the U.S. government's official web portal to all federal, state and local government web resources and services.